Retour au catalogue

HYLAS 4

ActifCommunicationsGEO
NORAD 43272·PAYLOAD·🇬🇧 United Kingdom

Lancé Apr 5, 2018 depuis Guiana Space Centre

Loading…

TLE

FraisSource: Space-Track

Époque: Sep 14, 2026, 10:13 UTC

1 43272U 18033B   26257.42597117 -.00000242  00000-0  00000-0 0  9990
2 43272   0.0844 269.3889 0000930 261.4469 302.4048  1.00271758 30965

Suivez HYLAS 4 en temps réel avec AllMySat

Download on the App Store